FENGYUN 1C DEB, 31761

Orbit data source: Space-Track

FENGYUN 1C DEB, 31761 is space debris in SSO originally from a launch on Mon, 10 May 1999 UTC launched from the Taiyaun Space Center, China (TSC). Fengyun 1C debris stems from the Chinese weather satellite Fengyun-1C, which was intentionally destroyed by a Chinese anti-satellite missile in 2007. This event dramatically increased the amount of space debris, with thousands of trackable fragments posing hazards to satellites and human spaceflight. The Fengyun 1C debris cloud has become a focal point in discussions about space sustainability and the need for international regulations to prevent the creation of new debris.

Loading next visibility...
Identifier
31761, 1999-025CFL
Orbit
SSO
Country
Flag of CNCN / PRC
Related business
Manufacturer
Unknown
Mission
Spacecraft
Bus & Motor
Unknown
Mass
Unknown
Launch date (UTC)
1999-05-10 (27 years ago)
Launch vehicle
Unknown
Launch site
Taiyaun Space Center, China (TSC)
Object type
Payload
Rocket body
Debris
Shape & HBR
Unknown shape, 0.1 m
Radar Cross Section
Medium (>0.1 m² and <1 m²)

Expand to show TLE details & history
Last TLE update: 1 week ago

TLE from 1 week ago
0 FENGYUN 1C DEB
1 31761U 99025CFL 26152.58412539  .00005522  00000-0  12732-2 0  9997
2 31761  98.6192  13.7381 0465639 140.0944 223.5451 14.05458861605097
Epoch: 2026-06-01T14:01Z
TLE epoch observation values (Epoch: 2026-06-01T14:01:08.433Z)
Latitude
-0.00007°
Longitude
-86.61638°
Altitude
1,129.812 km
Speed
7.16 km/s
True Right ascension
00h 54m 57s
True Declination
0° 00' 00"
Sunlit
Object was in daylight at epoch
Visualization orbit readout
Latitude
Unknown
Longitude
Unknown
Altitude
Unknown
Speed
Unknown
Apparent Right ascension
Unknown
Apparent Declination
Unknown
Sunlit
N/A
Visualization observer readout
Local Sidereal Time
02:42:49
Azimuth
Unknown
Elevation
Unknown
Doppler factor
Unknown
Orbital elements
Apogee altitude
1,209.718 km
Perigee altitude
534.518 km
Semi-major axis
7,250.255 km
Eccentricity
0.04656
Inclination
98.6192°
RAAN
13.7381°
Arg. of periapsis
140.0944°
True anomaly
220.02036°
Mean anomaly
223.5451°
Eccentric anomaly
221.76796°
Mean motion
3.51571 °/min
Orbital period
102.4 mins
BSTAR
0.0012732
Loading maneuver chart data...
Computing Atmospheric mass density...

Documentation

Showing up to 5 results
|